Вернуться в каталог

STARLINK-11262

АктивенСвязьVLEO
NORAD 62009·PAYLOAD·🇺🇸 United States

Запущен Nov 18, 2024 с Vandenberg Space Force Base

Loading…

Ближайшие Пролёты (ближайшие 24 часа)

TLE

СвежийSource: CelesTrak SupGP

Эпоха: Sep 15, 2026, 03:02 UTC

1 62009C 24213B   26258.12687500 -.00024725  00000+0 -20362-3 0  2586
2 62009  53.1588 187.6892 0001263  85.3548 310.0659 15.69727400    11

Отслеживайте STARLINK-11262 в реальном времени с AllMySat

Download on the App Store